Location: The Saddle
(36.8333°N, 80.3417°W)
Time: 01:48:38
(UTC-05:00)

A-11 Canister half - Pass Details

Date: 10 December 2023
Orbit: 1526 x 1682 km, 47.3° (Epoch: 01 March)

Event Time Altitude Azimuth Distance (km) Brightness Sun altitude
Rises 19:12:04 0° 261° (W) 4,916 13.1 -24.7°
Reaches altitude 10° 19:15:21 10° 266° (W) 3,936 12.2 -25.3°
Maximum altitude 19:25:15 55° 342° (NNW) 1,962 9.5 -27.3°
Enters shadow 19:29:15 37° 38° (NE) 2,398 9.6 -28.1°
